QPF
0.00 0.00 0.00 0.00 0.00 0.00 0.00 0.00 0.00 0.01 0.00 0.00 0.00 0.00 0.01 0.01 0.01 0.01 0.01 0.02 0.03 0.03 0.02 0.02 0.01 0.01 0.02 0.02 0.02 0.03 0.04 0.05 0.05 0.07 0.07 0.07 0.06 0.06 0.05 0.04 0.03 0.03 0.03 0.03
0.00 0.00 0.00 0.00 0.00 0.00 0.00 0.00 0.00 0.00 0.00 0.00 0.00 0.01 0.01 0.02 0.02 0.01 0.02 0.02 0.02 0.03 0.04 0.04 0.03 0.03 0.03 0.03 0.03 0.03 0.04 0.06 0.08 0.08 0.07 0.06 0.07 0.07 0.06 0.05 0.05 0.05 0.05 0.05
0.00 0.00 0.00 0.00 0.00 0.01 0.00 0.00 0.01 0.01 0.00 0.01 0.01 0.01 0.02 0.02 0.02 0.02 0.01 0.01 0.02 0.03 0.03 0.04 0.05 0.06 0.05 0.05 0.05 0.06 0.08 0.10 0.12 0.11 0.11 0.10 0.11 0.10 0.08 0.06 0.06 0.07 0.07 0.05
0.00 0.00 0.00 0.00 0.00 0.01 0.01 0.01 0.01 0.01 0.01 0.01 0.01 0.01 0.02 0.02 0.02 0.01 0.01 0.01 0.02 0.02 0.02 0.02 0.03 0.04 0.05 0.04 0.05 0.07 0.09 0.10 0.12 0.11 0.09 0.10 0.12 0.11 0.09 0.09 0.08 0.08 0.07 0.06
0.00 0.00 0.00 0.00 0.00 0.01 0.01 0.01 0.01 0.01 0.01 0.01 0.01 0.02 0.02 0.01 0.01 0.02 0.02 0.01 0.01 0.01 0.02 0.02 0.02 0.04 0.06 0.05 0.05 0.06 0.08 0.09 0.09 0.12 0.13 0.10 0.09 0.09 0.10 0.11 0.11 0.10 0.09 0.09
0.00 0.00 0.00 0.00 0.00 0.00 0.01 0.01 0.01 0.01 0.01 0.01 0.01 0.02 0.01 0.01 0.01 0.01 0.01 0.01 0.01 0.02 0.02 0.02 0.03 0.03 0.03 0.05 0.06 0.06 0.08 0.10 0.09 0.10 0.13 0.14 0.12 0.11 0.12 0.11 0.12 0.13 0.14 0.12
0.00 0.00 0.00 0.00 0.00 0.00 0.01 0.01 0.01 0.01 0.01 0.01 0.01 0.01 0.02 0.02 0.02 0.02 0.01 0.01 0.01 0.02 0.03 0.04 0.04 0.04 0.03 0.04 0.04 0.05 0.06 0.07 0.07 0.07 0.09 0.13 0.12 0.10 0.10 0.10 0.11 0.10 0.09 0.07
0.00 0.00 0.00 0.00 0.00 0.01 0.01 0.01 0.01 0.01 0.01 0.01 0.01 0.02 0.02 0.02 0.01 0.01 0.01 0.01 0.02 0.03 0.04 0.05 0.06 0.06 0.06 0.05 0.04 0.05 0.05 0.05 0.05 0.05 0.05 0.06 0.07 0.07 0.08 0.09 0.11 0.09 0.08 0.07
0.00 0.00 0.00 0.00 0.00 0.01 0.01 0.01 0.01 0.01 0.01 0.02 0.02 0.02 0.02 0.02 0.02 0.01 0.01 0.01 0.02 0.03 0.05 0.06 0.06 0.07 0.07 0.06 0.05 0.04 0.05 0.06 0.05 0.04 0.04 0.05 0.07 0.06 0.08 0.08 0.09 0.09 0.07 0.08
0.00 0.00 0.01 0.01 0.01 0.01 0.00 0.00 0.00 0.01 0.01 0.01 0.01 0.02 0.02 0.02 0.03 0.03 0.02 0.03 0.05 0.06 0.05 0.04 0.04 0.05 0.05 0.04 0.04 0.04 0.04 0.05 0.05 0.04 0.03 0.04 0.05 0.04 0.04 0.05 0.05 0.06 0.05 0.05
0.00 0.00 0.00 0.00 0.01 0.00 0.00 0.00 0.00 0.00 0.01 0.01 0.01 0.01 0.02 0.02 0.02 0.03 0.03 0.03 0.04 0.04 0.04 0.05 0.04 0.03 0.03 0.03 0.04 0.03 0.03 0.03 0.03 0.03 0.03 0.04 0.04 0.03 0.03 0.03 0.04 0.05 0.05 0.05
0.00 0.00 0.00 0.00 0.00 0.00 0.00 0.00 0.00 0.00 0.01 0.02 0.02 0.03 0.03 0.03 0.03 0.03 0.04 0.05 0.05 0.05 0.04 0.05 0.07 0.05 0.04 0.05 0.05 0.05 0.04 0.02 0.02 0.02 0.03 0.03 0.03 0.02 0.02 0.03 0.03 0.04 0.04 0.04
0.00 0.00 0.00 0.00 0.00 0.00 0.00 0.00 0.00 0.00 0.01 0.01 0.01 0.02 0.02 0.02 0.03 0.04 0.05 0.05 0.05 0.05 0.05 0.06 0.10 0.10 0.09 0.08 0.07 0.06 0.05 0.03 0.03 0.03 0.03 0.02 0.02 0.02 0.02 0.02 0.02 0.05 0.05 0.06
0.00 0.00 0.00 0.00 0.00 0.00 0.00 0.00 0.00 0.00 0.00 0.01 0.01 0.01 0.01 0.02 0.03 0.04 0.05 0.05 0.06 0.06 0.06 0.06 0.09 0.13 0.15 0.13 0.09 0.07 0.06 0.06 0.05 0.04 0.04 0.04 0.04 0.03 0.02 0.02 0.02 0.03 0.05 0.06
0.00 0.00 0.00 0.00 0.00 0.00 0.00 0.00 0.00 0.00 0.00 0.00 0.01 0.02 0.02 0.03 0.04 0.05 0.06 0.06 0.05 0.06 0.06 0.05 0.05 0.07 0.10 0.14 0.11 0.08 0.07 0.07 0.08 0.08 0.07 0.07 0.06 0.04 0.03 0.02 0.02 0.01 0.02 0.05
0.00 0.00 0.00 0.00 0.00 0.00 0.00 0.00 0.00 0.00 0.01 0.02 0.02 0.03 0.05 0.06 0.06 0.05 0.04 0.05 0.05 0.05 0.05 0.06 0.05 0.04 0.05 0.06 0.08 0.09 0.09 0.10 0.10 0.09 0.07 0.05 0.04 0.03 0.02 0.02 0.01 0.01 0.03 0.05
0.00 0.00 0.00 0.00 0.00 0.00 0.00 0.00 0.01 0.01 0.02 0.03 0.06 0.07 0.07 0.06 0.04 0.04 0.05 0.05 0.04 0.05 0.06 0.07 0.07 0.06 0.05 0.05 0.05 0.06 0.07 0.10 0.11 0.07 0.06 0.05 0.04 0.03 0.03 0.03 0.02 0.03 0.04 0.05
0.01 0.01 0.01 0.01 0.01 0.01 0.01 0.02 0.03 0.04 0.05 0.07 0.08 0.08 0.06 0.04 0.04 0.05 0.05 0.05 0.05 0.05 0.05 0.05 0.05 0.06 0.06 0.06 0.06 0.06 0.07 0.07 0.06 0.06 0.06 0.06 0.05 0.04 0.04 0.05 0.05 0.06 0.06 0.06
0.01 0.01 0.02 0.02 0.03 0.04 0.04 0.05 0.05 0.06 0.05 0.03 0.02 0.02 0.03 0.04 0.04 0.05 0.05 0.06 0.06 0.07 0.06 0.05 0.06 0.06 0.06 0.06 0.04 0.04 0.05 0.04 0.04 0.05 0.06 0.07 0.07 0.05 0.05 0.04 0.04 0.06 0.06 0.05
0.02 0.03 0.04 0.04 0.04 0.05 0.04 0.04 0.03 0.03 0.02 0.01 0.01 0.01 0.01 0.02 0.03 0.04 0.06 0.06 0.06 0.05 0.05 0.06 0.06 0.06 0.06 0.05 0.04 0.04 0.03 0.03 0.03 0.03 0.04 0.06 0.07 0.06 0.06 0.05 0.03 0.03 0.04 0.04
0.04 0.05 0.05 0.04 0.03 0.03 0.03 0.02 0.02 0.02 0.02 0.01 0.01 0.01 0.01 0.01 0.02 0.03 0.04 0.04 0.03 0.04 0.04 0.05 0.06 0.06 0.06 0.05 0.05 0.04 0.03 0.03 0.02 0.02 0.02 0.03 0.05 0.06 0.05 0.04 0.03 0.02 0.02 0.02
0.03 0.03 0.03 0.04 0.03 0.03 0.03 0.03 0.02 0.02 0.02 0.01 0.01 0.01 0.01 0.01 0.02 0.02 0.02 0.02 0.01 0.02 0.02 0.03 0.04 0.04 0.04 0.04 0.03 0.03 0.02 0.03 0.03 0.02 0.02 0.03 0.05 0.05 0.04 0.03 0.03 0.02 0.02 0.02
0.02 0.02 0.02 0.03 0.03 0.03 0.03 0.03 0.02 0.02 0.01 0.02 0.02 0.02 0.02 0.01 0.01 0.01 0.01 0.01 0.02 0.02 0.02 0.03 0.04 0.03 0.03 0.03 0.02 0.02 0.02 0.03 0.03 0.02 0.02 0.03 0.05 0.06 0.04 0.03 0.03 0.03 0.02 0.02
0.03 0.03 0.02 0.02 0.02 0.03 0.03 0.03 0.03 0.02 0.02 0.02 0.02 0.02 0.02 0.02 0.02 0.02 0.02 0.02 0.02 0.03 0.03 0.04 0.03 0.03 0.03 0.03 0.03 0.03 0.03 0.03 0.02 0.03 0.02 0.03 0.04 0.04 0.03 0.03 0.02 0.02 0.02 0.02
0.03 0.03 0.02 0.01 0.01 0.02 0.02 0.01 0.02 0.02 0.02 0.02 0.02 0.02 0.03 0.04 0.03 0.03 0.03 0.03 0.03 0.03 0.03 0.03 0.04 0.04 0.02 0.02 0.03 0.03 0.03 0.03 0.03 0.03 0.03 0.03 0.03 0.02 0.02 0.02 0.02 0.02 0.01 0.01
0.01 0.01 0.01 0.01 0.01 0.01 0.01 0.01 0.01 0.02 0.03 0.03 0.03 0.03 0.03 0.06 0.07 0.06 0.04 0.03 0.03 0.03 0.03 0.03 0.03 0.04 0.03 0.02 0.02 0.02 0.02 0.03 0.04 0.04 0.02 0.02 0.03 0.02 0.01 0.01 0.02 0.02 0.02 0.02
0.01 0.01 0.01 0.02 0.01 0.01 0.01 0.02 0.02 0.03 0.04 0.04 0.04 0.05 0.04 0.05 0.07 0.09 0.06 0.04 0.04 0.03 0.03 0.03 0.03 0.04 0.04 0.02 0.01 0.01 0.01 0.01 0.02 0.02 0.02 0.02 0.02 0.03 0.01 0.01 0.02 0.02 0.02 0.02
MSLP
1009.52 1010.02 1010.49 1010.92 1011.29 1011.58 1011.77 1011.85 1011.80 1011.65 1011.42 1011.18 1010.97 1010.86 1010.89 1011.07 1011.42 1011.89 1012.44 1013.01 1013.54 1013.99 1014.33 1014.54 1014.64 1014.67 1014.65 1014.62 1014.60 1014.59 1014.59 1014.59 1014.57 1014.51 1014.40 1014.24 1014.03 1013.80 1013.56 1013.34 1013.13 1012.95 1012.80 1012.64
1009.78 1010.21 1010.54 1010.76 1010.89 1010.93 1010.90 1010.82 1010.70 1010.56 1010.45 1010.38 1010.39 1010.51 1010.73 1011.07 1011.49 1011.97 1012.46 1012.94 1013.37 1013.72 1013.99 1014.19 1014.32 1014.41 1014.49 1014.56 1014.63 1014.69 1014.73 1014.74 1014.71 1014.61 1014.46 1014.26 1014.02 1013.79 1013.56 1013.37 1013.21 1013.08 1012.98 1012.89
1010.13 1010.47 1010.65 1010.68 1010.58 1010.40 1010.18 1009.96 1009.78 1009.66 1009.63 1009.71 1009.90 1010.20 1010.57 1011.01 1011.48 1011.95 1012.40 1012.79 1013.13 1013.40 1013.63 1013.82 1013.98 1014.15 1014.31 1014.47 1014.62 1014.75 1014.82 1014.84 1014.78 1014.65 1014.46 1014.22 1013.97 1013.72 1013.51 1013.34 1013.22 1013.14 1013.09 1013.04
1010.50 1010.73 1010.76 1010.61 1010.32 1009.96 1009.58 1009.25 1009.02 1008.91 1008.95 1009.14 1009.46 1009.89 1010.38 1010.89 1011.39 1011.85 1012.25 1012.58 1012.85 1013.08 1013.29 1013.48 1013.70 1013.92 1014.16 1014.40 1014.61 1014.78 1014.87 1014.88 1014.80 1014.63 1014.40 1014.14 1013.87 1013.63 1013.43 1013.29 1013.21 1013.16 1013.14 1013.11
1010.79 1010.89 1010.78 1010.47 1010.03 1009.52 1009.03 1008.62 1008.35 1008.26 1008.35 1008.62 1009.03 1009.55 1010.11 1010.68 1011.20 1011.65 1012.03 1012.33 1012.58 1012.79 1013.00 1013.23 1013.49 1013.77 1014.07 1014.36 1014.61 1014.79 1014.88 1014.87 1014.76 1014.56 1014.31 1014.03 1013.76 1013.53 1013.35 1013.24 1013.18 1013.16 1013.15 1013.13
1010.90 1010.86 1010.60 1010.17 1009.61 1009.01 1008.45 1008.01 1007.73 1007.65 1007.79 1008.11 1008.59 1009.16 1009.77 1010.37 1010.91 1011.37 1011.75 1012.06 1012.31 1012.55 1012.79 1013.06 1013.36 1013.70 1014.04 1014.35 1014.61 1014.79 1014.86 1014.82 1014.68 1014.46 1014.19 1013.91 1013.65 1013.44 1013.28 1013.20 1013.16 1013.15 1013.14 1013.11
1010.74 1010.56 1010.19 1009.66 1009.03 1008.39 1007.81 1007.37 1007.11 1007.06 1007.23 1007.60 1008.11 1008.72 1009.36 1009.98 1010.54 1011.02 1011.42 1011.75 1012.04 1012.32 1012.61 1012.93 1013.28 1013.65 1014.02 1014.34 1014.60 1014.75 1014.80 1014.73 1014.57 1014.33 1014.06 1013.78 1013.54 1013.35 1013.23 1013.16 1013.14 1013.13 1013.11 1013.07
1010.29 1009.99 1009.52 1008.94 1008.29 1007.66 1007.11 1006.71 1006.50 1006.50 1006.71 1007.10 1007.64 1008.26 1008.90 1009.53 1010.10 1010.61 1011.04 1011.41 1011.75 1012.09 1012.43 1012.80 1013.19 1013.59 1013.96 1014.28 1014.52 1014.65 1014.67 1014.58 1014.40 1014.16 1013.89 1013.64 1013.43 1013.27 1013.18 1013.13 1013.11 1013.10 1013.07 1013.00
1009.60 1009.18 1008.66 1008.07 1007.45 1006.87 1006.40 1006.07 1005.93 1005.99 1006.24 1006.65 1007.19 1007.81 1008.44 1009.06 1009.64 1010.15 1010.61 1011.03 1011.42 1011.80 1012.20 1012.62 1013.03 1013.44 1013.81 1014.12 1014.33 1014.44 1014.43 1014.33 1014.15 1013.93 1013.69 1013.47 1013.30 1013.17 1013.10 1013.07 1013.06 1013.04 1012.99 1012.90
1008.73 1008.25 1007.70 1007.14 1006.59 1006.10 1005.73 1005.51 1005.46 1005.58 1005.87 1006.29 1006.82 1007.41 1008.01 1008.61 1009.16 1009.68 1010.15 1010.59 1011.02 1011.45 1011.88 1012.32 1012.75 1013.16 1013.52 1013.81 1014.00 1014.09 1014.08 1013.98 1013.82 1013.63 1013.42 1013.25 1013.11 1013.02 1012.97 1012.95 1012.93 1012.91 1012.85 1012.76
1007.81 1007.29 1006.76 1006.25 1005.80 1005.43 1005.19 1005.08 1005.11 1005.30 1005.61 1006.04 1006.54 1007.08 1007.64 1008.18 1008.70 1009.19 1009.66 1010.11 1010.55 1011.00 1011.45 1011.90 1012.34 1012.74 1013.08 1013.35 1013.53 1013.61 1013.60 1013.53 1013.39 1013.24 1013.08 1012.94 1012.84 1012.78 1012.75 1012.74 1012.72 1012.69 1012.64 1012.54
1006.94 1006.42 1005.93 1005.50 1005.16 1004.92 1004.79 1004.79 1004.91 1005.15 1005.48 1005.89 1006.34 1006.83 1007.32 1007.80 1008.26 1008.71 1009.15 1009.59 1010.03 1010.48 1010.93 1011.37 1011.79 1012.17 1012.50 1012.75 1012.92 1013.01 1013.02 1012.97 1012.88 1012.77 1012.66 1012.56 1012.50 1012.46 1012.44 1012.43 1012.41 1012.38 1012.33 1012.26
1006.22 1005.71 1005.28 1004.93 1004.70 1004.57 1004.56 1004.65 1004.83 1005.10 1005.43 1005.80 1006.20 1006.62 1007.03 1007.44 1007.84 1008.24 1008.64 1009.05 1009.47 1009.90 1010.34 1010.76 1011.16 1011.53 1011.83 1012.07 1012.24 1012.34 1012.37 1012.35 1012.30 1012.24 1012.18 1012.12 1012.08 1012.06 1012.05 1012.03 1012.01 1011.99 1011.95 1011.90
1005.67 1005.19 1004.82 1004.55 1004.41 1004.38 1004.45 1004.60 1004.83 1005.10 1005.41 1005.74 1006.09 1006.42 1006.76 1007.10 1007.44 1007.78 1008.14 1008.52 1008.91 1009.32 1009.73 1010.13 1010.51 1010.85 1011.14 1011.37 1011.53 1011.64 1011.70 1011.72 1011.72 1011.70 1011.67 1011.65 1011.63 1011.62 1011.61 1011.59 1011.57 1011.54 1011.52 1011.51
1005.29 1004.86 1004.55 1004.35 1004.28 1004.32 1004.44 1004.63 1004.86 1005.13 1005.41 1005.68 1005.96 1006.23 1006.50 1006.77 1007.05 1007.35 1007.67 1008.01 1008.38 1008.76 1009.15 1009.52 1009.88 1010.20 1010.47 1010.69 1010.87 1010.99 1011.08 1011.13 1011.16 1011.18 1011.19 1011.19 1011.19 1011.18 1011.17 1011.15 1011.12 1011.10 1011.10 1011.13
1005.09 1004.70 1004.44 1004.31 1004.29 1004.36 1004.51 1004.70 1004.93 1005.16 1005.39 1005.61 1005.83 1006.03 1006.24 1006.45 1006.69 1006.95 1007.25 1007.57 1007.91 1008.27 1008.64 1008.99 1009.32 1009.62 1009.89 1010.10 1010.28 1010.42 1010.53 1010.61 1010.68 1010.73 1010.76 1010.79 1010.80 1010.80 1010.78 1010.76 1010.74 1010.73 1010.74 1010.79
1005.03 1004.70 1004.50 1004.40 1004.42 1004.51 1004.65 1004.83 1005.03 1005.22 1005.40 1005.56 1005.71 1005.86 1006.02 1006.19 1006.40 1006.63 1006.90 1007.21 1007.54 1007.88 1008.22 1008.56 1008.87 1009.16 1009.41 1009.63 1009.81 1009.96 1010.09 1010.20 1010.30 1010.38 1010.44 1010.49 1010.51 1010.52 1010.51 1010.49 1010.47 1010.47 1010.49 1010.57
1005.12 1004.85 1004.70 1004.64 1004.67 1004.76 1004.89 1005.04 1005.20 1005.34 1005.46 1005.57 1005.67 1005.77 1005.89 1006.03 1006.20 1006.42 1006.67 1006.96 1007.28 1007.60 1007.93 1008.25 1008.55 1008.83 1009.07 1009.28 1009.47 1009.64 1009.79 1009.92 1010.04 1010.15 1010.24 1010.31 1010.36 1010.38 1010.39 1010.38 1010.37 1010.37 1010.41 1010.50
1005.35 1005.15 1005.05 1005.02 1005.06 1005.15 1005.26 1005.37 1005.47 1005.56 1005.63 1005.68 1005.74 1005.80 1005.88 1006.00 1006.15 1006.35 1006.59 1006.86 1007.16 1007.47 1007.79 1008.09 1008.37 1008.64 1008.87 1009.09 1009.28 1009.46 1009.63 1009.79 1009.94 1010.08 1010.20 1010.30 1010.38 1010.43 1010.45 1010.47 1010.47 1010.49 1010.53 1010.62
1005.72 1005.59 1005.54 1005.54 1005.58 1005.66 1005.74 1005.81 1005.87 1005.91 1005.93 1005.94 1005.96 1005.98 1006.04 1006.13 1006.26 1006.44 1006.66 1006.91 1007.19 1007.49 1007.78 1008.07 1008.34 1008.60 1008.83 1009.05 1009.25 1009.44 1009.63 1009.82 1010.00 1010.17 1010.33 1010.46 1010.58 1010.66 1010.72 1010.76 1010.79 1010.82 1010.87 1010.94
1006.22 1006.15 1006.13 1006.16 1006.20 1006.26 1006.31 1006.35 1006.37 1006.37 1006.36 1006.33 1006.31 1006.31 1006.34 1006.41 1006.52 1006.68 1006.88 1007.12 1007.38 1007.66 1007.94 1008.21 1008.47 1008.72 1008.95 1009.17 1009.39 1009.60 1009.81 1010.02 1010.23 1010.44 1010.64 1010.81 1010.97 1011.09 1011.19 1011.26 1011.32 1011.36 1011.40 1011.46
1006.80 1006.78 1006.79 1006.82 1006.86 1006.90 1006.93 1006.94 1006.93 1006.90 1006.86 1006.81 1006.78 1006.76 1006.77 1006.83 1006.92 1007.07 1007.25 1007.47 1007.72 1007.98 1008.24 1008.51 1008.77 1009.01 1009.25 1009.48 1009.71 1009.94 1010.18 1010.42 1010.66 1010.90 1011.13 1011.34 1011.53 1011.70 1011.83 1011.93 1012.00 1012.05 1012.09 1012.12
1007.42 1007.42 1007.44 1007.46 1007.49 1007.51 1007.52 1007.51 1007.48 1007.43 1007.38 1007.33 1007.29 1007.27 1007.28 1007.33 1007.42 1007.56 1007.74 1007.95 1008.19 1008.44 1008.70 1008.97 1009.23 1009.48 1009.74 1009.98 1010.23 1010.48 1010.74 1011.00 1011.26 1011.53 1011.78 1012.02 1012.24 1012.44 1012.59 1012.71 1012.80 1012.85 1012.86 1012.85
1008.02 1008.01 1008.02 1008.03 1008.04 1008.04 1008.03 1008.00 1007.97 1007.92 1007.87 1007.83 1007.80 1007.80 1007.82 1007.88 1007.99 1008.13 1008.31 1008.53 1008.77 1009.03 1009.30 1009.58 1009.85 1010.12 1010.40 1010.66 1010.93 1011.20 1011.47 1011.75 1012.02 1012.30 1012.57 1012.82 1013.05 1013.25 1013.42 1013.54 1013.62 1013.65 1013.63 1013.57
1008.53 1008.51 1008.50 1008.48 1008.47 1008.45 1008.43 1008.40 1008.37 1008.34 1008.31 1008.30 1008.30 1008.32 1008.38 1008.47 1008.59 1008.76 1008.96 1009.19 1009.45 1009.72 1010.01 1010.31 1010.61 1010.91 1011.20 1011.49 1011.78 1012.06 1012.34 1012.63 1012.90 1013.17 1013.43 1013.68 1013.90 1014.08 1014.23 1014.33 1014.37 1014.37 1014.30 1014.19
1008.95 1008.91 1008.87 1008.83 1008.80 1008.77 1008.75 1008.73 1008.72 1008.72 1008.72 1008.74 1008.79 1008.85 1008.95 1009.07 1009.23 1009.43 1009.65 1009.91 1010.20 1010.50 1010.82 1011.14 1011.47 1011.80 1012.12 1012.43 1012.73 1013.02 1013.30 1013.57 1013.83 1014.08 1014.31 1014.52 1014.69 1014.84 1014.94 1014.99 1014.98 1014.92 1014.79 1014.60
1009.30 1009.24 1009.18 1009.13 1009.09 1009.07 1009.05 1009.06 1009.08 1009.11 1009.16 1009.23 1009.32 1009.43 1009.56 1009.73 1009.92 1010.14 1010.40 1010.68 1011.00 1011.33 1011.67 1012.02 1012.38 1012.73 1013.07 1013.39 1013.70 1013.99 1014.26 1014.50 1014.73 1014.94 1015.11 1015.26 1015.38 1015.46 1015.49 1015.46 1015.38 1015.24 1015.02 1014.75
Thickness
5730 5737 5739 5739 5740 5738 5732 5726 5719 5728 5731 5746 5753 5757 5761 5764 5767 5768 5769 5770 5771 5771 5771 5772 5773 5773 5773 5773 5772 5771 5768 5765 5764 5762 5759 5756 5753 5751 5748 5745 5744 5742 5739 5737
5723 5730 5732 5729 5733 5735 5734 5733 5729 5730 5732 5749 5751 5754 5755 5756 5758 5758 5760 5762 5763 5764 5764 5764 5765 5765 5766 5766 5766 5764 5762 5760 5758 5756 5753 5750 5748 5746 5744 5741 5738 5736 5734 5732
5700 5713 5719 5708 5723 5726 5728 5730 5728 5724 5731 5740 5741 5745 5747 5749 5750 5751 5753 5754 5755 5756 5757 5757 5757 5757 5757 5758 5758 5756 5754 5753 5751 5748 5746 5745 5743 5739 5737 5735 5732 5729 5729 5727
5686 5698 5688 5706 5726 5727 5722 5722 5724 5725 5728 5732 5734 5738 5741 5743 5743 5743 5745 5746 5748 5749 5750 5751 5751 5750 5749 5750 5749 5747 5745 5744 5742 5741 5739 5738 5734 5733 5731 5729 5725 5723 5723 5722
5669 5673 5682 5702 5715 5714 5710 5709 5717 5717 5721 5724 5728 5730 5731 5737 5737 5738 5739 5740 5741 5742 5742 5742 5742 5741 5740 5740 5739 5736 5735 5734 5734 5733 5730 5729 5727 5726 5724 5722 5718 5717 5716 5716
5660 5665 5665 5689 5709 5714 5707 5695 5709 5709 5710 5712 5716 5707 5714 5728 5729 5730 5731 5732 5733 5733 5733 5733 5732 5732 5730 5727 5726 5725 5726 5728 5727 5725 5722 5721 5720 5719 5717 5715 5714 5712 5710 5709
5654 5656 5665 5688 5699 5704 5683 5686 5700 5701 5701 5702 5701 5703 5711 5717 5718 5720 5721 5722 5723 5723 5723 5723 5723 5722 5719 5717 5717 5718 5719 5719 5717 5716 5715 5714 5712 5711 5709 5708 5706 5703 5702 5702
5641 5644 5655 5683 5685 5680 5680 5688 5690 5691 5692 5693 5695 5699 5702 5705 5707 5709 5710 5712 5713 5712 5711 5712 5712 5710 5709 5708 5711 5710 5708 5707 5706 5707 5706 5705 5702 5702 5700 5699 5696 5694 5692 5691
5644 5649 5662 5669 5673 5677 5677 5677 5680 5680 5683 5684 5685 5687 5690 5692 5694 5697 5698 5700 5701 5700 5700 5701 5701 5700 5698 5700 5701 5699 5698 5696 5696 5697 5695 5695 5693 5692 5690 5688 5686 5685 5683 5682
5639 5649 5656 5661 5665 5668 5669 5669 5672 5673 5674 5676 5675 5677 5678 5679 5681 5683 5685 5686 5687 5687 5687 5689 5690 5690 5690 5691 5690 5689 5687 5686 5685 5685 5685 5684 5682 5682 5680 5678 5677 5676 5675 5674
5630 5639 5645 5652 5655 5657 5659 5661 5662 5663 5665 5666 5666 5666 5667 5668 5670 5671 5673 5674 5675 5675 5676 5677 5679 5679 5680 5680 5679 5676 5676 5675 5674 5674 5673 5673 5672 5671 5670 5671 5671 5669 5669 5667
5623 5632 5631 5638 5645 5648 5648 5650 5651 5651 5653 5655 5656 5656 5657 5658 5660 5661 5663 5664 5664 5664 5665 5666 5667 5668 5669 5670 5669 5667 5665 5665 5664 5663 5662 5661 5660 5659 5659 5660 5660 5660 5660 5658
5626 5630 5629 5634 5637 5639 5639 5641 5642 5642 5643 5644 5646 5647 5648 5648 5650 5652 5654 5655 5655 5656 5656 5657 5656 5657 5658 5659 5658 5657 5656 5655 5654 5653 5652 5651 5650 5649 5648 5648 5648 5649 5648 5647
5622 5622 5622 5626 5628 5631 5631 5633 5633 5633 5634 5636 5637 5638 5639 5639 5641 5642 5644 5646 5647 5646 5647 5647 5647 5647 5648 5648 5648 5647 5646 5645 5645 5644 5644 5643 5641 5640 5640 5639 5638 5637 5636 5635
5617 5617 5617 5620 5621 5622 5622 5622 5621 5622 5624 5626 5627 5628 5629 5630 5632 5634 5636 5637 5637 5637 5637 5637 5635 5636 5638 5639 5637 5636 5636 5635 5635 5634 5633 5632 5633 5633 5631 5630 5628 5627 5625 5624
5611 5612 5612 5611 5611 5612 5612 5612 5611 5613 5615 5616 5617 5618 5620 5621 5623 5624 5626 5626 5626 5626 5626 5625 5624 5626 5628 5628 5627 5626 5625 5625 5625 5625 5624 5624 5624 5623 5622 5621 5619 5617 5616 5615
5602 5603 5603 5603 5603 5603 5604 5604 5605 5606 5607 5607 5609 5610 5611 5612 5612 5613 5615 5615 5615 5616 5616 5615 5616 5617 5618 5619 5618 5616 5616 5616 5616 5616 5616 5615 5615 5614 5613 5612 5610 5608 5607 5606
5598 5598 5598 5596 5596 5596 5597 5598 5598 5599 5599 5601 5602 5602 5602 5601 5601 5603 5604 5604 5604 5604 5605 5606 5607 5608 5608 5608 5608 5607 5606 5606 5606 5606 5605 5605 5604 5603 5602 5602 5601 5599 5598 5595
5593 5593 5593 5593 5592 5591 5591 5591 5591 5592 5592 5592 5593 5593 5594 5593 5593 5593 5593 5593 5593 5593 5594 5597 5598 5598 5599 5599 5598 5597 5596 5596 5596 5596 5595 5594 5594 5593 5593 5593 5592 5590 5588 5585
5588 5588 5588 5588 5587 5586 5585 5585 5585 5585 5585 5585 5585 5585 5584 5584 5584 5583 5583 5582 5582 5584 5586 5587 5588 5589 5589 5590 5589 5588 5586 5586 5586 5586 5586 5585 5584 5584 5584 5583 5582 5581 5579 5577
5583 5582 5582 5581 5580 5580 5579 5579 5578 5578 5578 5579 5578 5578 5577 5576 5575 5574 5573 5574 5576 5577 5578 5578 5579 5580 5581 5581 5580 5579 5578 5577 5578 5577 5577 5577 5576 5574 5574 5573 5572 5571 5570 5568
5577 5577 5576 5575 5574 5573 5574 5574 5573 5573 5573 5573 5572 5572 5570 5569 5568 5567 5566 5566 5568 5569 5569 5569 5570 5571 5571 5571 5571 5570 5570 5569 5569 5568 5568 5567 5565 5565 5564 5564 5563 5562 5561 5559
5571 5571 5571 5570 5569 5568 5568 5568 5568 5567 5567 5567 5566 5565 5564 5563 5561 5560 5560 5561 5561 5561 5561 5561 5562 5562 5562 5562 5561 5561 5561 5560 5559 5559 5558 5557 5556 5556 5555 5555 5554 5553 5551 5550
5566 5566 5566 5565 5564 5563 5563 5563 5562 5561 5561 5561 5560 5559 5558 5557 5556 5555 5555 5555 5555 5554 5554 5553 5553 5554 5553 5553 5552 5552 5552 5551 5551 5550 5548 5547 5546 5546 5545 5545 5544 5543 5542 5541
5561 5560 5560 5560 5559 5558 5557 5557 5556 5556 5555 5555 5554 5554 5553 5552 5551 5551 5550 5550 5549 5548 5547 5546 5545 5545 5545 5545 5545 5544 5543 5542 5542 5541 5540 5538 5537 5536 5535 5535 5534 5533 5533 5532
5556 5556 5556 5555 5554 5553 5552 5552 5551 5550 5549 5549 5548 5548 5547 5546 5546 5545 5544 5543 5542 5541 5540 5539 5538 5538 5538 5538 5537 5536 5534 5533 5532 5531 5530 5529 5528 5527 5526 5525 5524 5523 5523 5522
5552 5552 5551 5551 5551 5550 5549 5548 5546 5545 5544 5543 5542 5542 5541 5540 5540 5539 5538 5536 5535 5534 5533 5532 5531 5530 5530 5529 5529 5527 5526 5525 5524 5523 5522 5521 5520 5519 5517 5516 5515 5515 5514 5513